Regional Weather Roundup
Issued by NWS Upton, NY

Current Version | Previous Version | Text Only | Print | Product List | Glossary On
Versions: 1 2 3 4 5 6 7 8 9 10 11 12 13 14 15 16 17 18 19 20 21 22 23 24 25 26 27 28 29 30 31 32 33 34 35 36 37 38 39 40 41 42 43 44 45 46 47 48 49 50
043 ASUS41 KOKX 191609 RWROKX REGIONAL WEATHER ROUNDUP NATIONAL WEATHER SERVICE NEW YORK NY 1200 PM EDT TUE SEP 19 2017 NOTE: "FAIR" INDICATES FEW OR NO CLOUDS BELOW 12,000 FEET WITH NO SIGNIFICANT WEATHER AND/OR OBSTRUCTIONS TO VISIBILITY. NYZ071-072-176-178-NJZ106-104-191700- NEW YORK CITY METRO AREA CITY SKY/WX TMP DP RH WIND PRES REMARKS Central Park CLOUDY 76 64 66 NE12G18 30.01F Bronx Bot Gard N/A 73 63 68 N3 30.01R LaGuardia APRT PTSUNNY 74 66 76 NE16 29.99S Kennedy INTL CLOUDY 75 64 68 NE22G31 29.99F Breezy Point N/A 72 N/A N/A NE15G25 N/A Newark/Liberty CLOUDY 77 64 64 NE20G28 29.98F Teterboro PTSUNNY 77 65 66 NE13G22 29.98F $$ NYZ177-179-078>081-191700- LONG ISLAND NEW YORK CITY SKY/WX TMP DP RH WIND PRES REMARKS Jones Beach N/A 70 N/A N/A NE22 N/A Matinecock PT N/A 72 N/A N/A NE21 N/A Farmingdale CLOUDY 71 64 78 NE17G28 29.98F MacArthur/ISP LGT RAIN 69 67 93 N20G31 29.97F Shirley LGT RAIN 70 68 93 N9G23 29.98F FOG Mt Sinai Harb N/A N/A N/A N/A NE21G28 N/A Westhampton RAIN 68 66 93 N20 29.99F FOG East Hampton LGT RAIN 67 65 96 N15G23 29.97F Montauk N/A 68 67 96 NE16G28 29.99F $$ NYZ052-065-067-191700- HUDSON VALLEY CITY SKY/WX TMP DP RH WIND PRES REMARKS White Plains PTSUNNY 73 63 70 N12G18 30.01F Larchmont Harb N/A 72 N/A N/A N15 N/A Croton On Huds N/A 75 N/A N/A E5G12 N/A Newburgh CLOUDY 73 66 78 NE17 30.05 Montgomery CLOUDY 76 65 68 N15 30.04F Poughkeepsie PTSUNNY 74 63 68 N13 30.03F Albany MOSUNNY 75 62 64 N5 30.09F $$ NJZ001-105-106-008-010-013-015-019>022-104-191700- NEW JERSEY CITY SKY/WX TMP DP RH WIND PRES REMARKS Newark/Liberty CLOUDY 77 64 64 NE20G28 29.98F Teterboro PTSUNNY 77 65 66 NE13G22 29.98F Caldwell MOSUNNY 77 66 68 NE15G22 30.00F Somerville NOT AVBL Linden NOT AVBL Perth Amboy N/A 75 N/A N/A NE21G29 N/A Sussex LGT RAIN 73 65 75 N13G22 30.04F Andover N/A 73 65 75 NE8 30.03F Trenton CLOUDY 78 66 66 NE15 29.96F Millville LGT RAIN 74 70 87 NE14G23 29.91F Atlantic City CLOUDY 72 68 87 NE18G33 29.89F Wrightstown PTSUNNY 73 66 80 NE18 29.92F Toms River LGT RAIN 69 67 93 NE20 29.94F Belmar LGT RAIN 70 66 87 NE14G26 29.97S $$ PAZ047>061-062-071-191700- EASTERN PENNSYLVANIA CITY SKY/WX TMP DP RH WIND PRES REMARKS Philadelphia PTSUNNY 78 64 61 NE17G31 29.95F Allentown MOSUNNY 76 66 71 NE16 30.01F Scranton CLOUDY 74 63 68 NE9 30.06F $$ CTZ002-004>006-009-010-012-RIZ004-006-007-MAZ004-011-015-191700- SOUTHERN NEW ENGLAND IN CT CITY SKY/WX TMP DP RH WIND PRES REMARKS Bradley INTL LGT RAIN 71 64 78 N12 30.07F Hartford CLOUDY 73 65 75 N10 30.05F Danbury CLOUDY 72 63 73 NE15G21 30.05F Wtrbury/Oxford CLOUDY 68 63 84 NE10G18 30.06F Norwalk Harbor N/A 72 N/A N/A NE18G24 N/A Bridgeport LGT RAIN 75 64 68 NE18 30.01F Meriden CLOUDY 72 63 73 N14G22 30.04F New Haven CLOUDY 72 64 76 NE15G23 30.02S Chester LGT RAIN 70 64 83 NE9G24 30.04F Groton LGT RAIN 69 66 90 NE15 30.01F Wilimantic CLOUDY 70 65 84 NE14 30.07S IN RI CITY SKY/WX TMP DP RH WIND PRES REMARKS Providence LGT RAIN 67 66 97 NE15 30.07S FOG Block Island LGT RAIN 67 66 97 N18G28 29.99F FOG Westerly CLOUDY 72 67 84 N13G18 30.03F IN MA CITY SKY/WX TMP DP RH WIND PRES REMARKS Boston CLOUDY 65 64 97 NE17 30.10F Worcester FOG 63 61 93 NE7 30.13S VSB 1/4 Westfield CLOUDY 72 64 76 NE12 30.08F Provincetown FOG 64 64 100 NE13 30.06F VSB 1/2 Nantucket LGT RAIN 68 68 100 NE16 29.99F $$ ANZ330-335-338-340-345-350-353-355-191700- COASTAL MARINE OBSERVATIONS STATION/POSITION TIME SKY/WX TEMP WIND PRES VSBY WAVE AIR SEA DIR/SP/G HT/PER (UTC) (F) (DEG/KT/KT) (MB) (MI) (FT/S) NY HARB ENTRANCE 1450 70 70 30/ 21/ 27 1013.7 9/11 20 S FIRE ISLAND 1450 68 68 30/ 23/ 29 1013.2 12/14 GREAT SOUTH BAY 1515 69 72 30/ 17/ 23 N/A 23 SSW MONTAUK P 1450 67 67 1014.4 12/11 15 E BARNEGAT LI 1430 71 N/A 12/14 HUDSON CANYON 1450 69 70 40/ 31/ 41 1008.2 18/14 KINGS POINT 1530 72 71 80/ 6/ 14 1016.5 EXECUTION ROCKS 1545 73 60/ 16/ 21 N/A WESTERN LI SOUND NOT AVBL CENTRAL LI SOUND 1500 69 40/ 17/ 21 N/A 1 EASTERN LI SOUND NOT AVBL ROBBINS REEF 1542 73 50/ 25/ 30 1015.6 $$ >>>>>>>>>>>>>>>>>>>>>>>>>>>> KEY <<<<<<<<<<<<<<<<<<<<<<<<<<< > < > SKY/WX - Sky Condition/Present Weather < > TMP - Temperature in Fahrenheit < > DP - Dew Point in Fahrenheit < > RH - Relative Humidity in Percent < > WIND - Direction (from) and Speed in MPH < > PRES - Mean Sea Level Pressure (inches of Hg) < > WCI - Wind Chill Index < > VSB - VISIBILITY IN MILES < > HX - HEAT INDEX < > TC - TEMPERATURE IN CELSIUS < > VRB - VARIABLE WIND DIRECTION < > < >>>>>>>>>>>>>>>>>>>>>>>>>>>> KEY <<<<<<<<<<<<<<<<<<<<<<<<<<<

USA.gov is the U.S. government's official web portal to all federal, state and local government web resources and services.